Wind_Speed
27 27 28 29 29 29 29 29 30 34 36 36 40 42 42 41 42 43 43 42 41 39 37 36 37 38 38 37 36 36 37 38 39 40 41 42 43 44 44 44 42 39 35 32
27 28 28 28 28 28 28 29 30 33 32 33 36 38 39 39 41 42 42 42 41 40 38 38 38 39 39 38 36 36 38 40 42 43 44 45 45 43 43 42 42 42 39 35
29 30 28 27 28 28 28 29 30 31 31 31 33 34 35 36 37 38 39 39 39 38 37 36 36 36 37 37 38 39 40 42 44 45 46 48 48 48 45 44 42 41 41 39
30 31 30 30 30 29 29 31 31 31 31 31 34 33 34 35 35 36 36 36 36 36 36 36 35 36 36 38 40 41 43 44 46 48 49 50 51 51 50 47 43 40 40 40
28 30 31 32 33 33 34 34 34 34 34 34 35 35 32 38 36 37 36 35 35 35 36 36 37 38 39 41 42 44 46 47 49 51 52 53 54 55 56 54 52 48 44 43
24 28 31 34 35 35 37 37 39 40 40 41 38 39 37 39 41 39 38 37 37 37 37 38 39 41 42 43 45 47 48 50 52 53 55 56 57 58 58 58 56 54 51 48
15 18 22 26 30 34 37 39 40 42 44 43 41 44 42 47 44 42 42 42 42 41 41 41 42 42 43 45 47 48 50 51 52 54 56 57 58 58 56 54 52 51 49 48
15 17 19 21 23 27 30 34 38 41 39 36 44 46 46 47 46 46 46 47 47 46 46 45 44 44 44 45 46 48 49 49 50 52 53 53 53 52 49 46 43 41 40 40
21 23 23 24 24 25 27 30 33 38 40 40 41 43 43 41 43 44 45 46 46 46 45 44 43 43 43 43 44 45 46 46 46 46 45 45 44 42 39 37 34 32 31 31
26 28 28 27 26 26 25 26 27 31 35 38 38 39 39 37 38 39 40 41 42 42 40 39 39 39 39 39 40 41 41 41 40 39 38 37 36 33 30 29 28 27 27 28
28 29 30 29 29 29 28 27 28 30 32 32 33 34 35 32 33 34 35 36 38 39 39 38 37 36 35 36 36 36 36 35 34 33 33 32 31 29 27 26 26 26 26 26
26 29 29 31 33 33 34 33 33 33 32 32 32 33 31 30 30 30 30 32 35 36 37 37 37 35 35 35 35 34 33 32 32 31 31 30 28 27 26 26 26 26 26 26
21 24 26 27 31 33 36 37 37 37 37 35 32 33 33 31 31 30 30 30 32 33 34 34 34 34 34 34 34 33 32 32 32 32 31 30 28 27 26 26 26 27 28 29
18 19 22 26 30 34 36 36 36 36 35 34 32 33 34 32 32 31 30 30 30 31 32 32 32 32 32 32 32 31 31 32 32 33 33 32 31 30 29 28 28 28 29 30
20 18 20 24 28 32 34 33 33 33 32 32 30 31 33 32 32 31 31 31 30 31 31 30 29 29 29 29 29 29 30 31 32 33 34 34 35 35 34 33 32 32 32 33
23 20 19 19 21 22 21 23 25 28 29 30 30 30 29 30 30 30 30 31 31 31 31 29 29 29 29 30 30 31 33 34 35 36 36 37 38 39 40 40 39 38 38 39
23 21 18 17 19 19 17 17 18 20 22 24 26 26 25 25 27 27 28 28 29 29 29 29 28 27 28 29 30 32 33 34 35 36 38 39 41 42 43 44 44 44 45 45
24 22 19 16 16 15 15 14 12 12 14 15 17 17 18 19 20 22 24 25 27 29 29 29 28 27 28 30 31 32 32 33 35 36 38 40 42 44 45 46 47 48 49 49
24 24 20 16 13 13 13 11 9 9 10 11 12 13 13 15 17 18 19 19 21 22 25 27 26 26 27 28 28 28 28 29 31 33 35 37 40 42 43 45 47 48 49 49
22 23 22 17 13 10 11 9 7 7 7 8 9 9 10 11 13 14 16 16 16 17 18 20 22 23 23 23 24 25 26 28 29 31 32 34 36 38 39 40 41 42 42 42
20 21 21 18 14 11 10 7 6 6 7 7 7 7 8 9 11 12 14 15 16 16 16 17 18 19 19 20 21 23 24 25 25 26 27 28 29 30 30 30 31 31 31 31
17 17 18 19 17 14 11 6 4 4 5 6 7 8 8 9 10 11 13 14 15 16 16 17 17 18 19 19 20 21 21 21 21 21 21 21 20 20 19 19 19 20 22 23
15 14 14 15 15 15 13 8 5 2 3 5 6 7 8 9 10 10 11 12 13 14 16 18 19 21 21 21 21 21 20 18 18 18 18 18 18 18 18 18 18 18 19 20
15 13 12 11 11 12 12 10 8 5 3 3 4 5 7 7 8 8 9 10 11 13 16 18 20 21 21 21 20 19 18 17 16 16 17 17 18 19 20 20 21 21 22 22
17 15 13 11 9 9 8 8 7 6 5 4 3 2 1 2 2 3 4 5 6 8 10 12 14 16 17 17 18 18 18 17 17 17 17 18 19 20 21 22 23 24 24 25
19 16 15 13 11 9 7 5 4 3 4 4 4 5 5 4 3 3 3 3 4 5 6 7 9 10 11 13 15 16 17 18 19 19 19 20 21 22 24 25 26 27 28 29
Wind_Direction
231 232 231 230 229 230 230 230 234 239 241 241 243 244 244 243 244 246 248 250 252 253 255 255 255 256 256 257 256 255 255 256 259 264 268 271 273 273 274 272 268 265 260 255
230 232 233 234 234 233 232 232 235 240 241 242 245 247 248 248 248 249 249 250 252 253 254 254 254 255 256 256 255 254 255 256 259 262 265 269 272 273 273 272 273 266 258 254
229 232 232 233 234 234 233 233 236 240 242 243 246 248 249 249 249 249 249 249 250 252 251 251 251 252 253 254 254 255 256 258 260 262 264 266 268 268 270 272 276 274 265 259
233 234 235 236 236 236 238 237 238 240 242 243 245 246 251 248 250 250 249 249 248 249 249 249 249 250 250 251 253 254 256 258 260 262 263 265 266 268 271 274 276 279 274 267
238 238 240 241 242 241 242 244 244 244 244 243 245 246 246 252 250 251 251 251 249 249 250 252 253 253 252 251 252 253 254 256 258 260 261 263 265 267 270 273 275 277 279 275
246 245 245 246 247 248 250 251 251 250 250 249 248 249 247 252 251 252 252 252 253 253 254 255 256 256 255 254 253 253 254 255 256 257 259 262 265 268 271 274 276 277 277 274
253 252 252 252 254 253 252 253 254 254 253 255 253 250 251 251 254 254 254 254 254 254 255 256 256 256 254 254 253 254 255 256 257 258 260 263 267 270 272 276 277 277 276 271
262 264 261 261 260 260 256 253 252 252 253 252 254 256 254 256 257 256 256 256 256 256 257 258 258 257 255 255 254 255 256 258 260 262 264 267 269 271 272 274 276 275 272 268
266 266 269 269 266 262 258 254 252 251 251 251 255 259 257 255 255 255 254 254 255 255 256 257 257 257 256 255 255 256 258 260 262 265 267 269 271 271 270 270 270 267 262 258
270 270 271 270 267 260 255 253 250 250 251 252 254 257 259 253 252 252 251 251 251 252 253 254 254 254 254 255 255 257 259 261 264 266 268 269 268 267 264 262 259 257 256 253
273 273 273 269 262 258 256 254 254 254 253 255 255 255 255 254 250 250 249 248 248 249 251 253 254 255 255 256 257 258 260 261 262 264 266 267 265 262 258 256 254 252 251 250
282 278 273 268 262 256 255 257 258 259 258 258 256 255 254 253 251 249 248 247 247 248 249 251 253 254 255 255 256 259 259 259 260 263 263 263 261 258 256 255 253 253 252 253
298 287 278 272 271 265 260 259 260 260 261 262 263 262 258 255 253 251 249 249 248 247 248 249 250 251 252 253 255 257 258 258 259 260 259 258 256 254 255 258 259 258 257 258
320 301 284 269 261 261 262 262 259 260 264 266 267 266 265 261 257 252 248 249 249 248 248 248 248 249 250 251 253 254 255 256 256 255 255 255 254 255 257 259 262 264 264 264
341 322 301 284 276 275 270 266 258 256 259 262 261 262 263 261 258 254 251 249 247 247 247 246 245 246 246 249 252 255 257 258 258 257 257 256 256 258 260 261 263 265 266 267
351 336 318 304 296 292 285 273 263 257 257 257 257 258 260 259 257 256 254 250 248 245 245 246 246 248 251 255 258 261 264 264 263 261 260 260 260 262 263 263 264 265 265 266
354 346 331 314 305 302 297 286 275 264 257 253 254 258 261 258 254 252 252 252 249 247 246 248 250 254 257 261 263 265 266 266 265 264 263 262 262 262 263 262 263 264 264 265
359 355 345 330 320 312 303 303 292 275 265 259 261 264 263 258 253 250 249 250 249 248 248 250 253 258 262 266 268 268 267 266 265 264 263 262 262 262 262 263 263 264 264 264
3 1 355 344 330 318 310 304 294 280 271 262 260 261 263 263 260 260 263 263 261 257 252 252 255 260 266 269 271 272 271 270 269 268 267 266 266 266 266 265 265 265 266 266
3 5 4 357 345 330 316 302 292 280 270 262 258 258 259 257 258 258 263 269 271 268 264 261 261 264 268 272 275 276 276 274 272 271 270 270 269 269 269 269 268 267 267 267
357 5 9 7 1 350 335 312 289 271 261 257 258 262 265 264 265 263 262 265 268 268 266 264 263 264 268 274 278 281 281 278 276 275 273 272 272 272 271 270 268 267 266 266
346 358 8 13 13 6 360 345 309 267 253 250 257 261 266 271 272 271 269 269 269 268 265 263 263 266 271 277 282 284 284 281 278 276 274 273 273 274 273 271 269 268 265 264
331 343 358 12 17 20 20 18 5 315 260 255 260 262 265 270 273 274 273 271 269 267 264 264 267 272 277 280 282 284 283 282 279 277 274 272 271 271 273 271 268 269 269 269
312 322 336 353 10 21 26 30 28 19 345 290 274 274 276 277 277 277 275 273 271 271 271 272 275 278 278 278 278 279 280 280 280 279 277 275 274 273 270 268 266 267 267 269
297 305 314 324 343 1 15 29 37 43 45 42 38 32 8 314 294 294 296 295 293 292 291 291 289 286 282 278 276 276 277 277 279 281 281 280 277 274 271 269 269 269 270 271
284 292 297 304 311 322 334 352 23 46 64 73 76 78 79 80 78 61 36 8 348 338 329 321 312 302 293 286 282 280 278 278 279 280 281 281 280 279 278 276 276 274 274 273
Height
5838 5841 5843 5845 5847 5850 5852 5855 5857 5858 5860 5864 5865 5868 5870 5873 5876 5877 5880 5882 5884 5886 5888 5889 5889 5889 5889 5890 5890 5891 5891 5891 5890 5889 5888 5886 5884 5881 5879 5877 5876 5877 5878 5879
5834 5835 5838 5840 5843 5845 5848 5850 5852 5852 5855 5857 5858 5860 5862 5865 5867 5869 5871 5873 5875 5877 5879 5880 5881 5881 5882 5883 5883 5883 5883 5883 5883 5882 5881 5879 5876 5873 5870 5867 5867 5868 5870 5871
5828 5831 5833 5835 5837 5840 5842 5844 5845 5847 5849 5851 5852 5854 5855 5857 5858 5860 5862 5864 5866 5868 5870 5871 5872 5873 5874 5875 5875 5875 5875 5875 5874 5874 5873 5871 5869 5866 5862 5861 5861 5861 5862 5863
5823 5825 5828 5830 5832 5834 5835 5837 5838 5840 5842 5844 5845 5847 5848 5849 5850 5851 5853 5856 5858 5859 5861 5862 5863 5864 5865 5866 5866 5867 5867 5866 5866 5865 5864 5862 5860 5858 5856 5856 5856 5857 5857 5857
5818 5820 5822 5825 5826 5828 5829 5830 5832 5833 5834 5836 5837 5839 5843 5839 5841 5842 5845 5847 5849 5851 5852 5853 5854 5855 5856 5856 5857 5857 5857 5857 5856 5855 5854 5853 5851 5850 5848 5848 5849 5850 5850 5850
5813 5814 5816 5818 5819 5821 5822 5824 5825 5825 5826 5827 5830 5831 5834 5832 5832 5833 5836 5838 5840 5842 5843 5844 5845 5846 5846 5847 5847 5848 5848 5847 5846 5845 5844 5843 5842 5841 5840 5839 5839 5840 5841 5841
5810 5810 5810 5811 5812 5813 5815 5817 5817 5817 5817 5819 5820 5820 5824 5820 5823 5825 5826 5828 5829 5831 5832 5833 5834 5835 5836 5836 5837 5837 5837 5837 5836 5836 5835 5834 5833 5833 5832 5831 5830 5830 5829 5829
5807 5808 5806 5806 5806 5806 5806 5807 5808 5808 5810 5811 5807 5809 5813 5812 5814 5814 5815 5816 5817 5819 5821 5822 5823 5824 5824 5825 5826 5826 5826 5827 5827 5826 5826 5825 5824 5823 5823 5822 5821 5819 5818 5817
5803 5803 5801 5800 5799 5799 5798 5797 5798 5798 5797 5798 5798 5798 5799 5803 5802 5803 5803 5804 5805 5807 5809 5810 5811 5812 5813 5814 5815 5816 5817 5817 5817 5816 5816 5815 5814 5813 5812 5812 5811 5810 5809 5809
5797 5797 5795 5794 5793 5792 5791 5790 5789 5788 5787 5788 5789 5789 5789 5790 5791 5791 5792 5793 5794 5796 5797 5799 5800 5802 5803 5804 5805 5806 5807 5808 5808 5808 5807 5806 5805 5804 5803 5803 5803 5803 5802 5802
5790 5790 5788 5787 5785 5784 5783 5783 5782 5780 5780 5780 5780 5782 5779 5780 5781 5781 5782 5783 5785 5786 5788 5790 5791 5792 5794 5795 5796 5797 5798 5798 5799 5799 5799 5798 5797 5796 5796 5796 5796 5796 5796 5796
5782 5781 5779 5778 5775 5774 5774 5773 5773 5772 5771 5770 5770 5773 5770 5770 5771 5772 5773 5774 5776 5777 5779 5780 5782 5783 5785 5785 5786 5787 5788 5790 5791 5791 5791 5790 5790 5790 5790 5790 5790 5790 5790 5790
5775 5773 5770 5769 5769 5766 5764 5763 5762 5761 5760 5759 5760 5763 5761 5761 5762 5764 5765 5765 5767 5768 5770 5771 5773 5775 5776 5777 5778 5779 5781 5782 5783 5783 5783 5784 5784 5784 5784 5784 5784 5783 5784 5784
5768 5764 5762 5761 5758 5755 5753 5753 5752 5751 5751 5750 5751 5751 5750 5752 5753 5755 5756 5757 5758 5760 5762 5763 5765 5767 5768 5769 5771 5772 5773 5774 5775 5775 5776 5776 5777 5777 5777 5777 5776 5776 5777 5777
5761 5757 5753 5749 5746 5743 5741 5741 5741 5741 5741 5742 5742 5742 5742 5743 5744 5746 5747 5749 5750 5752 5754 5756 5758 5759 5761 5762 5764 5765 5765 5766 5766 5767 5768 5768 5769 5769 5769 5769 5768 5769 5769 5769
5755 5751 5746 5741 5737 5734 5732 5731 5731 5732 5732 5733 5733 5734 5734 5734 5736 5738 5739 5741 5742 5744 5746 5748 5751 5753 5754 5756 5757 5757 5757 5757 5757 5758 5758 5758 5759 5759 5759 5759 5759 5759 5760 5760
5752 5746 5741 5736 5732 5728 5727 5725 5724 5724 5723 5725 5726 5727 5727 5728 5729 5731 5732 5733 5735 5736 5738 5741 5743 5745 5747 5748 5748 5748 5748 5748 5748 5748 5748 5748 5748 5748 5748 5748 5748 5748 5749 5749
5749 5742 5736 5732 5728 5725 5724 5720 5719 5718 5718 5719 5719 5720 5721 5722 5724 5725 5726 5727 5728 5729 5731 5733 5735 5737 5739 5739 5739 5739 5738 5738 5737 5737 5737 5736 5736 5736 5736 5736 5736 5736 5736 5736
5747 5740 5734 5729 5725 5722 5720 5717 5716 5715 5715 5715 5715 5716 5716 5717 5719 5720 5720 5721 5722 5723 5724 5725 5727 5729 5730 5730 5730 5729 5729 5728 5727 5727 5726 5726 5726 5725 5725 5725 5724 5724 5724 5724
5746 5739 5733 5727 5723 5720 5718 5715 5713 5713 5713 5712 5712 5712 5713 5713 5715 5716 5716 5716 5717 5717 5718 5719 5720 5721 5722 5722 5722 5721 5720 5719 5719 5718 5717 5717 5716 5715 5715 5714 5713 5713 5713 5712
5745 5739 5733 5727 5722 5719 5715 5712 5711 5712 5712 5710 5709 5709 5709 5709 5710 5711 5711 5711 5712 5713 5713 5714 5714 5715 5716 5715 5715 5713 5712 5711 5710 5710 5709 5708 5707 5706 5705 5704 5703 5703 5703 5704
5744 5739 5734 5728 5723 5721 5713 5710 5709 5709 5707 5707 5707 5707 5707 5706 5706 5706 5706 5706 5706 5707 5707 5708 5709 5710 5710 5709 5708 5707 5705 5704 5703 5702 5701 5701 5700 5699 5698 5697 5697 5696 5696 5697
5741 5738 5733 5729 5726 5720 5714 5710 5708 5706 5705 5705 5705 5704 5704 5703 5703 5702 5702 5702 5702 5702 5702 5703 5703 5703 5702 5702 5701 5700 5699 5698 5697 5696 5695 5695 5694 5694 5693 5693 5692 5691 5691 5691
5738 5735 5732 5728 5724 5720 5716 5712 5709 5707 5705 5703 5703 5702 5701 5701 5700 5699 5698 5698 5698 5698 5698 5697 5697 5696 5695 5694 5693 5693 5692 5691 5691 5690 5690 5689 5688 5688 5688 5687 5687 5686 5686 5685
5733 5731 5729 5726 5724 5720 5717 5713 5710 5708 5706 5704 5702 5700 5699 5699 5698 5697 5696 5695 5695 5694 5693 5692 5691 5690 5689 5688 5687 5687 5686 5686 5685 5684 5684 5683 5682 5682 5681 5681 5680 5680 5679 5679
5727 5726 5725 5724 5721 5719 5716 5713 5711 5708 5707 5705 5703 5701 5700 5699 5698 5697 5696 5694 5693 5691 5690 5688 5687 5686 5684 5683 5682 5682 5681 5680 5680 5679 5679 5678 5677 5676 5675 5674 5673 5673 5672 5671